Skip Page Navigation
NASA JPL Caltech
NASA Logo - Jet Propulsion Laboratory + View the NASA Portal
+ Center for Near-Earth Object Studies
JPL Home Earth Solar System Stars & Galaxies Technology
JPL Solar System Dynamics
BODIES ORBITS EPHEMERIDES TOOLS PHYSICAL DATA DISCOVERY FAQ SITE MAP
JPL Small-Body Database Browser
Search: [ help ]  
30206 Jasonfricker (2000 GD109)
Classification: Main-belt Asteroid          SPK-ID: 2030206
Ephemeris | Orbit Diagram | Orbital Elements | Mission Design | Physical Parameters | Discovery Circumstances ]

[ show orbit diagram ]
Orbital Elements at Epoch 2459200.5 (2020-Dec-17.0) TDB
Reference: JPL 25 (heliocentric ecliptic J2000)
 Element Value Uncertainty (1-sigma)   Units 
e .07649986133697202 3.1501e-08  
a 2.756410292265505 1.3259e-08 au
q 2.545545287119392 8.5356e-08 au
i 5.796124807975398 4.0696e-06 deg
node 166.8275793125865 3.8811e-05 deg
peri 109.4056910107516 4.9328e-05 deg
M 127.0330246753181 3.0438e-05 deg
tp 2458610.667960989318
(2019-May-07.16796099)
0.00014057 TDB
period 1671.530175610327
4.58
1.2061e-05
3.302e-08
d
yr
n .2153715232024172 1.554e-09 deg/d
Q 2.967275297411619 1.4274e-08 au
  Orbit Determination Parameters
   # obs. used (total)      1111  
   data-arc span      22022 days (60.29 yr)  
   first obs. used      1960-10-17  
   last obs. used      2021-02-01  
   planetary ephem.      DE441  
   SB-pert. ephem.      SB441-N16  
   condition code      0  
   norm. resid. RMS      .48377  
   source      ORB  
   producer      Otto Matic  
   solution date      2021-Apr-13 06:32:25  

Additional Information
 Earth MOID = 1.53483 au 
 Jupiter MOID = 2.12373 au 
 T_jup = 3.332 
[ show covariance matrix ]

Ephemeris | Orbit Diagram | Orbital Elements | Mission Design | Physical Parameters | Discovery Circumstances ]

Physical Parameter Table
Parameter Symbol Value Units Sigma Reference Notes
absolute magnitude H 14.88   n/a MPCxxxxx  
diameter diameter 3.124 km 0.423 urn:nasa:pds:neowise_diameters_albedos::2.0[mainbelt] (http://adsabs.harvard.edu/abs/2011ApJ...741...68M)  
geometric albedo albedo 0.239   0.068 urn:nasa:pds:neowise_diameters_albedos::2.0[mainbelt] (http://adsabs.harvard.edu/abs/2011ApJ...741...68M)  

30206 Jasonfricker           Discovered 2000 Apr. 7 by the Lincoln Laboratory Near-Earth Asteroid Research Team at Socorro.
Jason Fricker mentored a finalist in the 2014 Broadcom MASTERS, a math and science competition for middle school students. He teaches at the Porter-Gaud School, Charleston, South Carolina.
NOTE: some special characters may not display properly (any characters within {} are an attempt to place the proper accent above a character)
Reference: MPC batch dated 2015-01-05Last Updated: 2015-01-07

Alternate Designations
 2000 GD109 = 1999 AM22 
Ephemeris | Orbit Diagram | Orbital Elements | Mission Design | Physical Parameters | Discovery Circumstances ]
ABOUT SSD CREDITS/AWARDS PRIVACY/COPYRIGHT GLOSSARY LINKS
FirstGov 2021-Jun-21 08:21 UT
(server date/time)  
NASA Home Page
Site Manager:   Ryan S. Park
Webmaster  Alan B. Chamberlin